Regional Weather Roundup
Issued by NWS

Home | Current Version | Previous Version | Text Only | Print | Product List | Glossary On
Versions: 1 2 3 4 5 6 7 8 9 10 11 12 13 14 15 16 17 18 19 20 21 22 23 24 25 26 27 28
000
ASUS44 KBMX 200410
RWRAL

ALABAMA REGIONAL WEATHER ROUNDUP
NATIONAL WEATHER SERVICE BIRMINGHAM AL
1100 PM CDT THU OCT 19 2017

NOTE: "FAIR" INDICATES FEW OR NO CLOUDS BELOW 12,000 FEET
WITH NO SIGNIFICANT WEATHER AND/OR OBSTRUCTIONS TO VISIBILITY.

THE REMARK "TC" DENOTES TEMPERATURE IN DEGREES CELSIUS.

ALZ001>011-014-016>018-020-200500-
NORTH ALABAMA

CITY           SKY/WX    TMP DP  RH WIND       PRES   REMARKS
MUSCLE SHOALS  FAIR      51  48  89 CALM      30.25S
HUNTSVILLE     FAIR      53  52  96 E5        30.25S
DECATUR        FAIR      46  46 100 CALM      30.25S
HALEYVILLE     FAIR      50  50 100 CALM      30.27S FOG
GADSDEN        FAIR      47  47 100 CALM      30.27S
$$

ALZ012-013-022-023-030>036-040>044-200500-
WEST CENTRAL ALABAMA

CITY           SKY/WX    TMP DP  RH WIND       PRES   REMARKS
TUSCALOOSA     FAIR      55  55 100 CALM      30.24R
DEMOPOLIS        N/A     54  53  95 CALM      30.22S
$$

ALZ015-024>026-033>036-041>044-200500-
CENTRAL ALABAMA

CITY           SKY/WX    TMP DP  RH WIND       PRES   REMARKS
BIRMINGHAM     FAIR      55  50  83 CALM      30.27S
MONTGOMERY     FAIR      56  51  84 CALM      30.23S
SHELBY CO ARPT FAIR      55  54  96 CALM      30.25S
MAXWELL AFB    FAIR      58  56  91 CALM      30.22S
GREENVILLE     FAIR      58  53  84 CALM      30.22S
SELMA          FAIR      54  52  94 CALM      30.22S
PRATTVILLE     FAIR      53  53  99 CALM      30.22S
BESSEMER       FAIR      60  50  69 E6        30.25S
TALLADEGA      FAIR      51  50  96 CALM      30.26S
PELL CITY      CLEAR     48  48 100 CALM      30.26S FOG
MARION         NOT AVBL
SYLACAUGA      CLOUDY    51  51 100 CALM      30.25S FOG
$$

ALZ019-021-028-029-037-038-045>048-200500-
EAST CENTRAL ALABAMA

CITY           SKY/WX    TMP DP  RH WIND       PRES   REMARKS
ANNISTON       FAIR      53  50  89 E3        30.26S
ALEXANDER CITY FAIR      52  51  95 CALM      30.26R
AUBURN         FAIR      59  52  77 NE7       30.26R
$$

ALZ051>064-200500-
SOUTHWEST ALABAMA

CITY           SKY/WX    TMP DP  RH WIND       PRES   REMARKS
MOBILE         FAIR      65  60  84 NE7       30.20S
BROOKLEY FIELD FAIR      72  63  73 NE10      30.20S
EVERGREEN      FAIR      57  55  93 CALM      30.22S
$$

ALZ049-050-065>069-200500-
SOUTHEAST ALABAMA

CITY           SKY/WX    TMP DP  RH WIND       PRES   REMARKS
DOTHAN         FAIR      60  59  96 NE6       30.24S
OZARK          FAIR      62  57  84 NE6       30.21R
TROY           FAIR      57  56  96 CALM      30.24R
EUFAULA        FAIR      59  57  93 CALM      30.22S
$$




USA.gov is the U.S. government's official web portal to all federal, state and local government web resources and services.